Location: Grisols
(45.0093°N, 3.1167°E)
Time: 00:23:04
(UTC+00:00)

ATLAS CENTAUR R/B - Pass Details

Date: 21 October 2019
Orbit: 456 x 692 km, 64.6° (Epoch: 31 October)

Event Time Altitude Azimuth Distance (km) Brightness Sun altitude
Rises 20:03:32 0° 329° (NNW) 2,929 5.7 -34.0°
Reaches altitude 10° 20:06:07 10° 340° (NNW) 1,977 4.6 -34.4°
Enters shadow 20:06:23 11° 341° (NNW) 1,880 4.4 -34.4°
